Weather History for GMTA - September, 2013

Change the Weather History Date:

Tuesday, September 10, 2013

  Actual Average Record
Temperature  
Mean Temperature 78 °F -  
Max Temperature 88 °F 74 °F 88 °F (2013)
Min Temperature 67 °F 62 °F 60 °F (2010)
Cooling Degree Days 12    
Growing Degree Days 28 (Base 50)    
Moisture  
Dew Point 70 °F    
Average Humidity 74    
Maximum Humidity 88    
Minimum Humidity 60    
Precipitation  
Precipitation 0.00 in - - ()
Sea Level Pressure  
Sea Level Pressure 30.10 in    
Wind  
Wind Speed 6 mph ()    
Max Wind Speed 16 mph    
Max Gust Speed -    
Visibility 5.8 miles    
Events      
Averages and records for this station are not official NWS values.
T = Trace of Precipitation, MM = Missing Value Source: Averaged Metar Reports

Daily Weather History Graph

Daily Weather History Graph

Search for Another Location

Airport or City:

Trip Planner

Search our weather history database for the weather conditions in past years. The results will help you decide how hot, cold, wet, or windy it might be!

Date:

Astronomy

Sep. 10, 2013 Rise Set
Actual Time 6:54 AM WEST 7:29 PM WEST
Civil Twilight 6:28 AM WEST 7:54 PM WEST
Nautical Twilight 5:58 AM WEST 8:25 PM WEST
Astronomical Twilight 5:28 AM WEST 8:55 PM WEST
Moon 11:52 AM WEST (9/10) 10:34 PM WEST (9/10)
Length of Visible Light 13h 26m
Length of Day
12h 34m
Waxing Crescent, 26% of the Moon is Illuminated
Sep 10
Waxing Crescent
Sep 12
First Quarter
Sep 19
Full
Sep 27
Last Quarter
Oct 5
New

Hourly Weather History & Observations

Time (WEST) Temp. Heat Index Dew Point Humidity Pressure Visibility Wind Dir Wind Speed Gust Speed Precip Events Conditions
12:00 AM 71.6 °F - 66.2 °F 83% 30.18 in - WSW 4.6 mph - N/A   Clear
1:00 AM 72 °F - 66 °F 75% 30.18 in 6 mi NE 4.6 mph - -  
1:00 AM 71.6 °F - 66.2 °F 83% 30.15 in - NE 4.6 mph - N/A   Clear
2:00 AM 73.4 °F - 69.8 °F 88% 30.15 in - NNW 6.9 mph - N/A   Clear
7:00 AM 67 °F - 63 °F 83% 30.14 in 5 mi SSW 2.3 mph - -   Scattered Clouds
7:00 AM 68.0 °F - 62.6 °F 83% 30.12 in 5.0 mi SSW 2.3 mph - N/A   Partly Cloudy
9:00 AM 77.0 °F - 68.0 °F 74% 30.15 in 5.0 mi WSW 2.3 mph - N/A   Partly Cloudy
10:00 AM 77 °F - 70 °F 74% 30.16 in 6 mi North 4.6 mph - -   Scattered Clouds
10:00 AM 77.0 °F - 69.8 °F 78% 30.15 in 6.2 mi North 4.6 mph - N/A   Partly Cloudy
11:00 AM 77.0 °F - 69.8 °F 78% 30.15 in 6.2 mi North 9.2 mph - N/A   Partly Cloudy
1:00 PM 81 °F - 72 °F 69% 30.13 in 6 mi NNW 11.5 mph - -   Scattered Clouds
1:00 PM 80.6 °F 85.4 °F 73.4 °F 79% 30.12 in 6.2 mi NNW 11.5 mph - N/A   Partly Cloudy
2:00 PM 82.4 °F 88.2 °F 73.4 °F 74% 30.06 in 6.2 mi NNE 16.1 mph - N/A   Partly Cloudy
3:00 PM 86.0 °F 93.4 °F 73.4 °F 66% 30.06 in - NNE 13.8 mph - N/A   Clear
4:00 PM 85 °F - 73 °F 61% 30.06 in 6 mi NNE 13.8 mph - -  
4:00 PM 84.2 °F 90.9 °F 73.4 °F 70% 30.04 in - NNE 13.8 mph - N/A   Clear
5:00 PM 84.2 °F 89.6 °F 71.6 °F 66% 30.04 in - NE 11.5 mph - N/A   Clear
6:00 PM 84.2 °F 89.6 °F 71.6 °F 66% 30.04 in - East 11.5 mph - N/A   Clear
7:00 PM 82 °F - 70 °F 60% 30.04 in 6 mi NE 4.6 mph - -  
7:00 PM 82.4 °F 86.3 °F 69.8 °F 66% 30.04 in - NE 4.6 mph - N/A   Clear
8:00 PM 78.8 °F - 69.8 °F 74% 30.04 in - NE 9.2 mph - N/A   Clear
9:00 PM 77.0 °F - 69.8 °F 78% 30.04 in - NW 6.9 mph - N/A   Clear
10:00 PM 76 °F - 69 °F 73% 30.07 in 6 mi WNW 4.6 mph - -  
10:00 PM 75.2 °F - 69.8 °F 83% 30.06 in - WNW 4.6 mph - N/A   Clear